Temp
5 5 5 5 5 4 4 4 4 4 4 4 4 4 5 5 5 5 6 6 6 7 7 7 8 8 9 9 8 9 9 9 8 8 8 8 8 7 8 8 9 9 9 9 10 10 9
5 5 5 4 4 4 4 4 4 4 4 4 4 4 4 5 6 6 6 6 6 7 7 7 7 7 8 8 8 8 8 8 8 8 7 6 6 7 8 8 8 8 8 8 9 9 9
5 5 5 4 4 4 3 3 3 4 4 4 4 4 4 5 5 5 6 7 7 7 7 6 7 7 7 8 8 8 8 7 7 7 7 7 7 6 7 7 7 7 7 8 8 9 9
5 5 4 3 3 3 3 3 3 3 4 4 4 4 5 5 5 5 5 6 6 6 6 6 6 7 7 7 7 8 7 7 8 6 6 6 7 6 7 6 7 7 8 8 9 10 10
4 4 4 3 3 3 3 3 3 3 3 4 4 4 4 4 4 5 5 6 6 6 6 6 7 6 6 6 7 7 7 7 7 7 6 6 6 6 5 6 7 8 9 10 10 10 10
4 4 4 3 3 4 3 3 3 3 3 3 3 3 3 4 4 5 5 5 5 5 6 6 6 6 6 5 3 7 6 6 7 7 7 6 4 5 5 7 8 9 9 9 9 10 9
3 3 4 3 4 4 3 3 3 3 2 2 3 3 3 3 4 5 5 5 5 4 5 5 5 5 7 6 5 7 6 5 6 6 6 6 5 6 7 8 8 8 7 7 7 8 8
3 3 3 3 3 3 3 3 2 2 2 2 2 2 3 3 3 4 4 4 4 4 6 6 6 6 7 6 6 5 5 5 5 5 5 5 6 6 7 6 7 6 6 6 7 7 7
3 3 2 3 3 3 3 2 2 2 2 2 2 2 2 3 3 3 3 3 3 3 4 5 5 6 6 6 5 4 5 4 5 4 5 6 7 7 6 6 6 6 6 6 6 6 6
3 3 3 2 2 3 2 2 2 1 2 2 2 1 2 2 2 2 2 2 2 2 3 4 4 6 5 5 5 5 5 5 5 5 5 6 6 6 5 5 6 6 6 6 6 6 6
3 2 2 2 2 2 2 1 1 1 2 1 1 1 1 2 2 1 1 1 1 1 2 4 3 4 5 5 5 5 5 5 5 5 4 5 6 5 5 5 5 6 5 6 5 5 5
2 2 2 2 2 2 1 1 0 0 1 1 0 1 1 1 0 1 0 0 -0 0 2 4 3 4 4 4 4 3 3 3 4 3 3 4 4 4 5 5 5 5 4 4 4 4 5
1 2 1 1 1 0 0 0 0 -0 -0 0 -0 -0 -0 -0 -0 0 -1 -1 -2 -1 3 5 4 3 3 3 4 4 3 3 3 3 3 4 5 5 5 4 4 4 4 4 4 5 5
1 1 1 1 -0 -1 -0 -1 -1 -1 -1 -1 -1 -1 -1 -1 -1 -1 -2 -2 -2 1 3 3 3 2 2 3 3 3 3 3 3 3 4 4 4 5 5 5 5 4 5 4 3 5 7
-0 -1 -1 -1 -1 -1 -1 -1 -1 -2 -2 -2 -2 -1 -2 -2 -3 -3 -3 -4 -1 1 1 -0 1 1 2 1 1 2 2 2 3 3 3 3 4 4 5 5 4 4 4 4 5 5 5
-2 -1 -1 -1 -1 -1 -1 -1 -1 -2 -2 -3 -3 -3 -2 -3 -3 -4 -5 -4 -2 -1 -2 -2 -3 -1 -0 -0 0 1 2 3 2 3 3 2 2 3 3 3 4 3 3 3 3 3 3
-2 -2 -2 -2 -2 -2 -2 -3 -3 -3 -4 -4 -5 -5 -4 -5 -5 -5 -5 -5 -4 -4 -3 -3 -3 -3 -3 -2 -1 -1 0 1 2 2 1 1 1 1 1 2 3 3 2 3 3 3 3
-3 -3 -3 -3 -3 -3 -4 -5 -6 -6 -6 -6 -7 -6 -5 -6 -6 -6 -5 -5 -5 -5 -5 -4 -4 -4 -4 -4 -4 -3 -2 -1 -0 -0 -0 -0 -0 -1 -0 0 1 1 2 1 2 2 1
-4 -4 -4 -4 -4 -5 -5 -6 -6 -6 -6 -7 -6 -6 -7 -7 -8 -7 -7 -7 -7 -6 -6 -6 -5 -5 -5 -5 -5 -5 -4 -3 -2 -2 -2 -2 -2 -2 -2 -1 -0 1 0 -1 -0 -1 -3
-5 -5 -5 -5 -6 -6 -6 -6 -6 -6 -6 -7 -7 -8 -8 -8 -8 -8 -8 -7 -7 -7 -6 -6 -6 -6 -6 -5 -5 -5 -5 -4 -4 -4 -3 -4 -4 -3 -3 -3 -2 -3 -3 -3 -3 -3 -4
-5 -5 -5 -5 -6 -6 -6 -6 -7 -7 -8 -8 -8 -8 -9 -9 -9 -8 -8 -8 -8 -8 -7 -7 -6 -6 -6 -6 -6 -6 -5 -5 -5 -5 -5 -5 -5 -4 -4 -4 -3 -3 -3 -3 -3 -3 -5
-5 -5 -5 -5 -6 -6 -7 -7 -7 -8 -8 -9 -9 -10 -11 -10 -10 -9 -9 -8 -8 -8 -8 -7 -7 -7 -7 -7 -6 -6 -6 -6 -6 -5 -5 -6 -5 -5 -5 -5 -4 -4 -4 -3 -3 -3 -3
-5 -6 -6 -6 -7 -8 -8 -9 -9 -9 -10 -10 -10 -10 -11 -10 -10 -11 -9 -9 -9 -8 -8 -8 -8 -8 -7 -8 -8 -8 -7 -6 -7 -6 -6 -6 -6 -6 -5 -5 -4 -5 -4 -4 -3 -3 -2
-6 -7 -7 -8 -9 -9 -10 -10 -10 -10 -10 -10 -11 -11 -11 -11 -11 -10 -10 -10 -10 -9 -9 -9 -9 -8 -8 -8 -8 -7 -7 -6 -6 -5 -6 -6 -6 -6 -5 -5 -5 -3 -3 -3 -3 -3 -3
-8 -9 -9 -9 -10 -10 -10 -11 -11 -11 -11 -11 -11 -12 -12 -12 -12 -11 -10 -10 -10 -10 -9 -10 -9 -9 -9 -9 -9 -8 -7 -7 -6 -5 -5 -6 -6 -6 -6 -5 -4 -3 -2 -2 -3 -3 -3
-10 -10 -10 -10 -10 -11 -11 -11 -12 -12 -12 -12 -12 -12 -12 -13 -10 -12 -11 -11 -11 -10 -10 -9 -10 -10 -9 -9 -9 -8 -7 -6 -5 -4 -4 -5 -6 -6 -6 -5 -4 -3 -2 -3 -3 -3 -3
-10 -10 -11 -11 -11 -12 -12 -12 -12 -12 -12 -12 -12 -12 -13 -13 -10 -12 -12 -12 -11 -11 -11 -11 -9 -9 -10 -9 -9 -9 -8 -6 -6 -4 -4 -5 -6 -6 -6 -5 -4 -3 -3 -3 -4 -3 -3
-10 -11 -11 -11 -12 -12 -12 -12 -12 -12 -12 -13 -12 -13 -13 -14 -12 -12 -12 -12 -12 -11 -11 -11 -11 -10 -10 -10 -10 -9 -7 -7 -5 -5 -4 -4 -5 -5 -5 -5 -4 -4 -5 -5 -4 -5 -4
-10 -11 -11 -12 -12 -12 -12 -13 -13 -13 -13 -13 -13 -13 -14 -14 -12 -13 -13 -12 -12 -12 -12 -11 -11 -11 -11 -10 -10 -11 -11 -9 -8 -6 -5 -5 -4 -4 -4 -4 -4 -5 -5 -5 -5 -5 -5
Height
3159 3159 3160 3160 3159 3159 3158 3157 3156 3155 3155 3154 3152 3150 3147 3146 3144 3142 3141 3140 3138 3135 3131 3129 3127 3126 3125 3125 3123 3117 3119 3118 3116 3115 3114 3113 3113 3113 3113 3112 3112 3111 3111 3109 3108 3107 3106
3155 3156 3156 3156 3156 3156 3155 3154 3152 3152 3151 3150 3148 3146 3143 3141 3139 3137 3136 3135 3134 3132 3129 3124 3123 3120 3119 3117 3115 3113 3113 3113 3112 3111 3111 3111 3108 3107 3105 3106 3107 3106 3105 3102 3101 3100 3101
3150 3150 3151 3151 3152 3152 3151 3150 3149 3148 3147 3146 3144 3141 3139 3137 3136 3134 3131 3130 3128 3128 3127 3122 3118 3115 3114 3114 3111 3109 3107 3108 3107 3105 3105 3106 3105 3105 3105 3100 3101 3100 3097 3097 3096 3094 3092
3145 3146 3146 3146 3146 3147 3147 3145 3145 3144 3143 3142 3139 3136 3134 3133 3131 3130 3128 3126 3122 3121 3120 3118 3115 3110 3108 3107 3106 3104 3103 3103 3102 3102 3101 3101 3100 3100 3101 3098 3095 3094 3097 3091 3091 3090 3088
3140 3140 3141 3141 3141 3141 3142 3141 3139 3138 3137 3136 3134 3132 3130 3129 3126 3124 3122 3119 3117 3115 3115 3112 3110 3107 3103 3102 3102 3101 3101 3099 3098 3098 3098 3097 3096 3095 3095 3098 3095 3092 3087 3088 3085 3085 3088
3134 3135 3135 3135 3136 3135 3135 3135 3134 3133 3132 3131 3129 3126 3124 3123 3122 3119 3116 3114 3111 3109 3110 3107 3104 3105 3102 3102 3099 3097 3097 3096 3095 3092 3094 3094 3095 3094 3094 3095 3091 3090 3083 3083 3083 3086 3084
3127 3127 3128 3129 3128 3129 3129 3128 3128 3127 3126 3124 3123 3121 3120 3118 3117 3115 3113 3110 3108 3104 3102 3103 3101 3095 3097 3096 3089 3091 3091 3090 3090 3089 3088 3091 3093 3090 3092 3090 3085 3087 3086 3081 3081 3081 3079
3119 3119 3119 3120 3120 3121 3121 3121 3122 3121 3120 3119 3117 3116 3115 3114 3112 3110 3107 3106 3103 3099 3087 3099 3090 3088 3085 3085 3083 3087 3084 3085 3084 3083 3085 3089 3086 3086 3087 3086 3083 3079 3082 3082 3078 3077 3078
3110 3111 3111 3112 3112 3113 3113 3113 3114 3114 3113 3112 3110 3110 3109 3108 3108 3106 3103 3104 3099 3096 3089 3083 3082 3082 3081 3081 3080 3081 3082 3082 3081 3082 3084 3084 3083 3083 3082 3082 3079 3077 3075 3075 3075 3074 3070
3100 3102 3101 3103 3103 3103 3104 3104 3105 3105 3106 3106 3104 3103 3103 3104 3103 3101 3097 3099 3097 3094 3087 3084 3080 3080 3080 3080 3080 3080 3080 3081 3082 3081 3080 3080 3078 3076 3078 3076 3075 3069 3070 3069 3067 3068 3062
3090 3090 3091 3092 3092 3094 3094 3095 3096 3097 3098 3098 3098 3098 3097 3096 3097 3096 3097 3095 3094 3093 3092 3084 3076 3078 3078 3080 3080 3078 3080 3079 3081 3081 3078 3074 3074 3070 3069 3069 3070 3064 3064 3062 3061 3059 3058
3078 3078 3079 3079 3081 3082 3085 3085 3086 3088 3090 3091 3091 3091 3091 3090 3090 3091 3092 3091 3091 3094 3088 3082 3077 3075 3077 3076 3077 3080 3076 3076 3078 3074 3072 3069 3070 3069 3065 3065 3064 3064 3063 3060 3057 3054 3044
3068 3067 3069 3069 3071 3073 3076 3077 3078 3080 3082 3083 3084 3085 3084 3084 3086 3085 3088 3087 3091 3089 3083 3080 3076 3076 3075 3075 3076 3076 3075 3075 3075 3072 3065 3065 3062 3062 3060 3059 3059 3058 3060 3056 3051 3048 3033
3054 3054 3056 3059 3063 3066 3067 3069 3071 3072 3074 3076 3076 3076 3077 3079 3080 3082 3082 3086 3082 3075 3076 3075 3074 3071 3071 3073 3071 3072 3069 3065 3067 3068 3060 3059 3051 3058 3057 3054 3050 3052 3054 3051 3045 3040 3033
3043 3047 3049 3052 3055 3056 3059 3061 3062 3064 3066 3067 3067 3066 3068 3072 3072 3075 3077 3077 3068 3068 3070 3066 3065 3064 3063 3064 3068 3066 3065 3060 3060 3061 3057 3052 3046 3046 3050 3048 3045 3045 3047 3047 3039 3036 3034
3039 3043 3045 3047 3048 3050 3052 3053 3054 3055 3056 3058 3059 3057 3057 3064 3064 3067 3066 3057 3061 3063 3061 3060 3060 3059 3057 3058 3062 3059 3056 3054 3054 3055 3051 3047 3043 3042 3042 3043 3041 3039 3040 3039 3036 3032 3029
3033 3035 3037 3039 3040 3042 3044 3045 3046 3047 3048 3049 3051 3050 3049 3053 3056 3055 3050 3050 3051 3053 3055 3056 3052 3050 3051 3052 3053 3048 3047 3047 3049 3047 3046 3042 3038 3033 3038 3034 3033 3035 3031 3032 3030 3028 3023
3026 3028 3031 3031 3034 3035 3036 3038 3039 3040 3041 3041 3042 3044 3044 3047 3051 3045 3041 3044 3043 3044 3049 3048 3047 3045 3042 3044 3043 3041 3038 3038 3044 3041 3040 3042 3033 3026 3024 3025 3025 3025 3026 3026 3021 3019 3019
3020 3022 3025 3026 3028 3030 3030 3032 3032 3033 3034 3034 3034 3036 3036 3038 3037 3037 3039 3037 3038 3038 3039 3041 3038 3040 3038 3035 3034 3028 3028 3030 3034 3034 3032 3034 3028 3023 3019 3019 3017 3017 3016 3015 3017 3016 3014
3014 3016 3020 3021 3022 3024 3025 3027 3027 3026 3027 3029 3029 3029 3028 3029 3030 3030 3032 3031 3029 3032 3029 3032 3030 3029 3028 3025 3024 3020 3017 3021 3022 3023 3025 3023 3021 3020 3016 3014 3014 3011 3013 3013 3013 3011 3007
3011 3014 3015 3016 3017 3019 3019 3020 3020 3019 3021 3023 3023 3022 3023 3022 3023 3023 3024 3023 3022 3022 3026 3024 3020 3020 3019 3015 3012 3010 3011 3011 3014 3015 3017 3017 3012 3014 3010 3008 3009 3006 3004 3006 3006 3005 3003
3006 3008 3010 3013 3012 3013 3013 3014 3013 3015 3018 3018 3018 3017 3018 3017 3017 3019 3019 3016 3016 3016 3020 3016 3014 3012 3009 3005 3005 3001 3002 3002 3002 3004 3005 3005 3001 3007 2999 3002 3001 2998 2995 2997 2996 2996 2995
3001 3002 3004 3006 3006 3005 3006 3009 3010 3011 3012 3012 3012 3011 3011 3012 3009 3013 3012 3011 3011 3011 3010 3009 3008 3006 3001 2999 2996 2992 2994 2995 2996 2996 2996 2996 2995 2996 2990 2997 2995 2991 2982 2987 2985 2987 2989
2994 2996 2997 2999 2999 3000 2999 3003 3005 3007 3007 3009 3008 3009 3006 3005 3005 3007 3009 3008 3004 3004 3003 3001 3002 2998 2997 2992 2988 2988 2987 2988 2988 2986 2989 2988 2992 2992 2987 2990 2985 2974 2979 2979 2978 2978 2980
2986 2988 2989 2992 2994 2994 2995 2998 3002 3000 3003 3002 3003 3003 3001 2999 3002 3001 3003 3002 3000 2998 2996 2995 2995 2993 2989 2988 2986 2982 2981 2981 2976 2976 2976 2979 2983 2984 2984 2981 2977 2970 2975 2975 2974 2971 2973
2980 2981 2984 2986 2987 2988 2990 2993 2996 2997 2997 2998 2998 2997 2997 2995 2994 2997 2997 2995 2994 2992 2989 2989 2992 2989 2986 2983 2982 2979 2977 2976 2973 2969 2967 2967 2970 2977 2976 2975 2970 2965 2969 2968 2966 2966 2969
2973 2974 2976 2977 2979 2981 2985 2987 2989 2991 2992 2993 2993 2993 2992 2989 2989 2989 2990 2988 2989 2988 2984 2983 2982 2982 2982 2976 2978 2976 2972 2973 2967 2965 2965 2962 2960 2961 2965 2968 2963 2965 2965 2963 2965 2968 2963
2964 2965 2967 2968 2971 2974 2977 2980 2983 2984 2986 2987 2987 2987 2987 2983 2981 2981 2983 2982 2983 2984 2982 2981 2979 2977 2975 2974 2974 2971 2967 2966 2962 2958 2959 2960 2960 2958 2959 2963 2960 2959 2957 2959 2960 2959 2957
2953 2954 2956 2960 2963 2967 2970 2972 2975 2978 2980 2981 2981 2982 2981 2978 2973 2974 2974 2974 2976 2976 2977 2977 2977 2976 2973 2973 2972 2968 2966 2964 2954 2952 2953 2953 2955 2955 2956 2954 2953 2954 2955 2957 2956 2956 2956
Wind_Speed
20 21 22 22 23 23 23 24 24 24 26 27 28 28 28 29 30 28 27 28 28 27 27 27 26 28 27 27 30 31 26 26 22 20 15 14 14 11 13 13 14 18 20 21 20 20 18
22 24 25 25 25 25 25 27 26 28 28 27 29 29 30 29 26 25 26 28 28 29 29 28 29 28 29 28 29 30 28 26 24 17 13 10 13 13 18 13 16 19 21 23 22 21 21
24 25 26 27 27 27 27 27 28 28 28 30 31 28 29 26 26 25 23 26 28 29 31 29 27 29 27 28 25 26 26 22 21 18 18 18 16 16 12 18 10 16 22 23 24 25 24
22 25 27 29 29 30 29 29 30 32 33 34 31 29 30 27 27 28 30 29 29 29 29 31 31 29 26 26 24 25 24 21 22 17 18 24 22 22 19 19 20 20 22 27 22 21 24
26 26 28 30 32 31 32 32 33 33 34 34 34 35 33 31 30 30 30 31 33 32 31 30 30 26 22 16 13 15 17 21 22 22 25 25 25 21 17 19 23 18 25 25 20 14 11
33 32 29 31 33 32 34 35 34 35 35 36 36 35 33 32 33 33 32 33 33 35 32 25 23 23 13 12 10 21 20 23 27 27 29 27 18 16 14 15 22 24 24 24 18 7 12
37 37 36 36 35 38 42 40 37 37 38 37 36 34 31 31 31 34 33 33 33 35 30 31 30 32 27 25 36 29 28 31 30 32 34 27 19 23 19 19 22 26 25 24 27 29 31
39 43 45 43 40 42 44 45 42 38 36 34 33 30 30 31 30 31 32 32 33 35 43 30 29 19 22 22 27 22 25 25 20 19 15 18 24 21 21 22 20 18 26 30 30 25 26
47 50 47 43 45 46 47 46 43 40 36 34 32 31 31 30 30 29 28 26 27 29 36 33 12 10 10 7 8 4 9 6 6 10 11 16 19 16 16 18 20 20 21 25 29 25 25
51 51 60 60 47 54 51 47 45 40 38 36 33 32 31 29 30 24 27 23 23 26 26 13 6 6 8 8 7 5 3 4 6 7 9 12 12 17 17 20 18 24 19 22 20 20 27
57 58 63 64 48 55 51 47 42 40 37 37 34 32 30 29 28 23 22 20 20 23 6 5 11 9 9 7 9 14 13 16 14 13 15 20 16 17 21 22 20 26 19 22 20 24 28
59 58 64 58 56 54 47 44 44 41 38 37 34 31 29 29 26 25 19 19 19 6 8 7 9 12 10 9 12 8 16 15 18 21 22 29 26 25 25 24 22 23 23 25 26 26 22
66 63 67 65 58 49 44 48 45 40 37 36 34 33 30 29 24 24 19 17 8 7 6 7 9 8 10 11 14 15 18 21 23 20 24 27 27 25 24 27 23 22 24 17 15 18 14
67 65 68 58 49 42 45 41 33 32 34 35 36 36 32 27 27 21 16 11 12 10 13 17 18 19 21 17 21 22 25 31 28 28 32 32 35 23 25 32 29 23 25 22 16 13 16
60 51 46 44 41 41 35 31 30 31 32 33 33 34 32 26 26 22 19 18 14 11 10 17 21 21 28 21 22 27 32 35 31 30 32 35 39 29 26 21 17 21 29 30 32 34 25
38 40 39 41 34 33 33 30 32 34 34 34 33 38 40 26 26 23 25 35 21 11 15 15 14 17 23 24 26 27 29 23 23 17 19 25 29 31 26 28 29 29 28 24 29 15 21
32 37 38 33 31 32 33 32 31 32 30 26 28 33 38 32 20 25 35 31 29 25 25 28 25 26 26 30 28 31 34 33 32 27 26 23 26 31 27 31 33 29 26 31 33 31 13
27 27 28 27 28 29 30 28 27 29 29 29 29 33 29 17 22 25 36 34 32 27 24 23 25 28 30 30 32 34 36 34 29 28 28 26 28 31 30 26 31 30 31 32 30 20 35
21 22 22 23 25 27 28 29 29 29 27 27 29 29 29 26 27 27 29 30 29 28 26 29 34 30 30 35 34 33 37 35 33 31 32 31 27 23 22 28 32 36 27 22 30 27 27
18 17 17 20 20 22 23 23 23 22 22 23 24 20 19 23 28 29 29 33 33 27 28 28 33 30 33 39 39 41 34 26 20 22 25 26 25 26 20 21 19 29 27 28 25 24 18
10 12 14 15 17 19 20 20 20 19 18 18 21 24 23 20 22 22 20 25 28 27 23 25 33 31 31 38 40 43 44 38 34 30 29 25 28 27 32 35 35 39 35 30 28 29 20
12 15 17 18 19 20 20 21 20 19 18 19 20 20 19 24 23 24 25 25 26 26 25 30 32 33 38 36 37 32 27 21 26 27 23 31 36 28 36 30 30 34 37 35 36 33 33
20 22 22 23 22 21 21 22 22 20 19 19 17 18 18 24 23 20 26 25 26 26 29 27 30 31 37 34 22 22 20 26 29 28 24 21 18 18 36 28 28 28 41 38 39 38 36
26 27 26 25 24 23 21 21 20 18 17 18 16 16 19 25 18 21 24 27 27 25 30 29 26 30 27 24 32 23 26 28 28 34 33 32 29 28 19 16 8 26 20 22 27 28 27
27 27 26 27 26 24 22 20 19 18 17 17 17 18 21 25 20 23 21 22 27 29 31 30 33 26 25 25 26 21 21 22 34 32 34 33 33 30 28 24 25 31 21 19 18 26 22
25 25 26 26 24 23 20 19 19 18 18 17 18 20 23 27 27 21 22 25 25 27 28 26 26 25 23 28 14 8 9 13 9 8 16 31 36 36 24 15 15 27 14 9 6 14 10
26 26 26 25 24 23 23 23 21 20 19 18 19 21 22 28 26 29 27 27 24 25 28 22 25 27 23 18 21 18 27 22 25 26 20 13 32 35 32 20 23 22 20 12 10 5 9
32 32 30 29 28 27 26 25 23 22 20 20 21 21 23 28 29 31 27 22 23 24 28 23 26 14 16 16 13 13 17 19 26 26 22 17 10 11 11 15 19 17 13 17 7 6 10
38 37 36 34 32 29 27 25 24 23 21 20 22 20 20 25 29 26 28 33 36 27 26 25 25 23 25 19 13 26 31 22 23 18 18 24 24 14 11 8 13 16 14 14 11 11 13
Wind_Direction
269 277 282 286 294 295 293 290 292 296 298 302 305 301 301 304 305 302 301 303 304 303 301 300 298 297 296 293 298 292 296 297 299 301 306 296 292 299 280 265 265 264 271 278 270 273 266
270 277 280 282 288 290 290 290 293 296 297 301 311 307 308 303 302 304 304 306 307 305 300 300 298 295 293 294 292 292 294 293 290 290 284 290 276 271 281 283 272 275 266 268 260 260 263
271 274 278 280 283 286 286 291 293 296 298 305 307 307 311 309 304 303 303 305 306 308 307 307 307 302 299 295 291 290 289 289 283 274 268 270 279 293 268 278 282 269 276 283 273 267 260
275 277 280 282 276 283 284 289 293 296 298 302 302 304 306 303 301 302 305 306 308 309 310 308 310 307 308 299 289 282 282 283 281 277 281 275 270 293 291 288 277 283 281 279 282 262 252
274 278 279 283 278 281 282 287 288 292 295 296 298 301 303 300 299 299 302 309 311 310 312 312 310 309 316 319 305 304 288 274 264 282 295 290 291 293 284 275 285 281 271 275 281 243 235
272 273 278 280 281 277 280 286 290 290 294 294 296 298 296 295 299 302 308 311 309 309 312 314 311 311 304 315 267 296 282 274 271 275 291 296 289 288 274 270 278 296 296 298 307 265 249
268 265 277 278 279 280 279 281 285 288 291 290 292 292 291 294 297 302 304 307 312 319 313 315 305 295 295 267 264 280 280 271 268 278 282 282 267 260 269 275 279 290 287 281 284 290 294
266 260 273 274 276 282 279 275 281 286 291 289 290 289 291 293 296 301 309 316 315 311 307 312 307 298 288 273 275 278 273 276 277 279 280 267 255 267 271 275 273 272 284 285 284 281 276
265 265 265 274 278 280 275 271 273 278 283 288 283 285 289 293 297 305 308 316 318 317 317 323 312 307 286 279 284 251 279 281 282 273 277 264 268 268 274 275 270 272 275 283 284 288 281
263 267 260 265 274 280 269 264 266 267 275 284 280 284 287 293 295 302 306 318 321 325 321 300 299 295 290 301 302 288 263 292 266 264 264 259 269 258 262 267 265 271 270 276 277 277 278
262 264 257 258 265 270 259 259 263 264 272 277 276 280 286 289 293 296 303 312 318 325 309 270 267 300 286 252 276 294 266 290 279 263 272 261 269 270 263 264 263 269 267 264 268 273 281
262 261 247 248 253 258 253 259 264 261 269 274 274 277 280 283 287 291 300 309 316 325 249 271 267 298 269 265 268 260 296 278 259 262 263 272 269 264 269 263 268 271 271 269 268 266 256
259 261 256 254 250 250 263 263 260 263 266 269 272 275 277 280 280 295 303 305 314 222 294 296 272 266 273 265 260 269 271 268 270 276 272 283 275 271 260 264 267 264 264 274 264 244 248
254 254 248 246 245 257 267 258 263 266 267 269 270 272 274 279 283 285 285 279 236 237 261 274 289 284 274 272 271 274 270 268 265 266 274 277 284 278 270 266 256 256 255 234 270 274 278
242 237 239 242 262 266 254 252 259 261 265 270 270 268 269 278 281 282 276 237 256 260 262 287 263 265 271 272 269 274 267 268 270 264 277 279 277 281 269 287 243 257 259 271 273 267 277
241 248 256 265 257 250 252 260 258 262 266 271 271 273 275 273 276 271 256 253 249 258 259 261 270 260 270 272 283 277 271 268 269 269 278 279 291 271 273 273 262 255 261 269 272 278 263
248 253 255 252 250 254 257 262 264 264 263 265 271 276 280 286 272 253 252 257 275 270 256 259 262 268 270 275 274 271 268 268 266 279 276 280 274 275 269 259 265 268 239 257 259 263 268
246 249 252 256 259 260 262 267 271 272 273 274 273 275 277 268 253 250 258 265 271 274 256 258 261 263 267 274 275 273 269 266 271 276 281 274 284 279 264 264 261 271 266 267 274 249 265
254 262 269 273 275 276 279 280 281 282 281 279 275 269 266 261 255 261 271 273 268 272 272 268 265 262 266 270 274 268 262 263 266 268 269 272 263 281 281 265 260 263 276 285 273 291 235
286 291 288 284 281 279 278 277 278 279 276 271 266 262 266 261 260 260 262 267 270 266 270 271 266 266 263 261 261 265 271 269 255 257 255 268 260 256 254 254 275 287 292 289 288 277 301
267 273 275 276 277 279 280 281 280 278 273 267 264 264 262 258 271 276 273 268 274 277 265 269 276 261 266 265 265 265 260 263 262 262 266 252 264 258 259 258 264 269 276 277 274 270 257
277 281 279 279 279 278 278 277 279 277 272 265 257 262 262 264 257 254 259 269 276 276 277 271 266 274 273 274 273 268 269 264 258 263 252 253 252 253 260 257 258 266 265 261 264 264 267
275 274 273 272 272 272 272 272 271 268 265 264 263 265 269 274 274 263 263 273 276 276 275 269 277 280 282 285 288 301 265 268 260 259 263 280 264 241 251 256 262 258 253 255 263 260 263
270 270 269 268 270 271 271 272 273 270 266 264 262 255 259 267 271 275 276 274 282 281 286 286 277 282 282 286 282 285 284 262 266 254 257 251 255 259 267 272 256 264 262 257 255 265 263
274 275 275 275 273 272 270 267 262 264 266 268 265 254 260 268 274 271 279 283 283 281 278 289 286 290 297 296 298 295 292 261 264 262 255 241 242 254 254 256 265 269 269 273 265 270 265
278 276 273 271 270 269 266 264 263 264 267 268 269 267 261 268 267 278 279 274 284 285 275 272 283 274 285 285 284 273 249 263 251 266 264 243 234 234 241 254 260 272 268 260 255 270 275
274 268 264 261 260 261 261 261 260 260 262 266 270 272 268 266 272 270 262 273 271 280 293 297 286 276 264 266 273 271 272 263 265 269 270 255 234 227 229 245 260 270 268 230 226 215 248
269 266 263 260 259 258 257 256 256 256 261 269 276 273 271 267 271 261 246 262 271 277 272 277 296 310 279 249 264 275 271 283 267 259 252 256 247 234 235 249 266 261 252 248 243 292 270
261 259 259 256 253 252 251 251 251 253 260 270 277 275 272 267 276 271 266 258 251 253 263 267 269 270 290 311 301 312 305 302 310 261 240 256 233 233 222 228 296 318 303 269 300 293 285